Flag for Brazil Weather past 2 weeks in Cuiabá, Mato Grosso, Brazil

Now
75 °F

Clear.


Feels Like: 77 °F
Forecast: 65 / 91 °F
Wind: 2 mph from East

Location: Cuiaba Aeroporto

Current Time: Jul 30, 2014 at 11:38:15 PM

Latest Report: Jul 30, 2014 at 11:00 PM


Visibility: 10 mi

Pressure: 30.01 "Hg

Humidity: 69%

Dew point: 64 °F

Location of CuiabáLocation

Historic Weather in Cuiabá — Graph

°F

Cuiabá temperature yesterday

Maximum temperature yesterday: 90 °F (at 2:00 PM)
Minimum temperature yesterday: 64 °F (at 6:00 AM)
Average temperature yesterday: 75 °F

Past Weeks' High & Low Weather Summary

 TemperatureHumidityPressure
High95 °F (Jul 16, 3:00 PM)100% (Jul 21, 7:00 AM)30.21 "Hg (Jul 21, 7:00 AM)
Low55 °F (Jul 24, 5:00 PM)26% (Jul 21, 1:00 PM)29.83 "Hg (Jul 23, 2:00 PM)
Average72 °F73%30.05 "Hg
* Reported Jul 15 10:00 PM — Jul 30 10:00 PM, Cuiabá, Weather by CustomWeather, © 2014

Note: Actual official high and low records may vary slightly from our data, if they occured in-between our weather recording intervals... More about our weather records

Advertising

Cuiabá weather history for previous 24 hours

 ConditionsComfort  
Time TempWeatherWind HumidityBarometerVisibility
10:00 PM
Jul 30
75 °FClear.3 mph69%30.01 "Hg10 mi
9:00 PM75 °FClear.2 mph69%30.01 "Hg10 mi
8:00 PM81 °FClear.5 mph58%29.98 "Hg10 mi
7:00 PM82 °FClear.3 mph55%29.98 "Hg10 mi
6:00 PM86 °FClear.6 mph46%29.98 "Hg10 mi
5:00 PM90 °FPassing clouds.2 mph46%29.95 "HgN/A
4:00 PM91 °FPassing clouds.3 mph32%29.95 "HgN/A
3:00 PM91 °FPassing clouds.6 mph32%29.98 "HgN/A
2:00 PM93 °FPassing clouds.3 mph32%30.01 "HgN/A
1:00 PM91 °FSunny.5 mph41%30.04 "Hg10 mi
12:00 PM90 °FSunny.6 mph36%30.07 "Hg10 mi
11:00 AM88 °FSunny.3 mph43%30.09 "Hg10 mi
10:00 AM84 °FSunny.2 mph48%30.12 "Hg10 mi
9:00 AM77 °FSunny.3 mph69%30.12 "Hg10 mi
8:00 AM72 °FSunny.5 mph78%30.09 "Hg10 mi
7:00 AM68 °FSunny.7 mph100%30.07 "Hg10 mi
6:00 AM66 °FClear.5 mph88%30.04 "Hg10 mi
5:00 AM66 °FClear.No wind94%30.01 "Hg10 mi
4:00 AM68 °FClear.No wind88%30.01 "Hg10 mi
3:00 AM66 °FClear.3 mph88%30.04 "Hg10 mi
2:00 AM72 °FClear.3 mph78%30.04 "Hg10 mi
1:00 AM72 °FClear.2 mph83%30.04 "Hg10 mi
12:00 AM72 °FClear.2 mph83%30.04 "Hg10 mi
11:00 PM
Jul 29
72 °FClear.2 mph78%30.04 "Hg10 mi
Weather by CustomWeather, © 2014

See weather overviewHow to use our weather pages